Weather in Bima

Indonesia     8°26′55″S   118°43′29″E
temp.,
°C
wind,
m/s
gust,
m/s
humid.,
%
clouds,
%
prec.,
mm/h
press.,
hPa
HPBL,
m
19 may, wed
wed1923:00+22se119274 0.0 101119
02:00+22sse1192100 0.0 101020
05:00+22sse119230 0.0 100914
08:00+25s12834 0.1 1011250
11:00+29sse117066 0.6 1010923
14:00+27ssw118299 5.7 1008362
17:00+26wsw118792 3.4 100963
20:00+22sse22966 3.6 101129
20 may, thu
thu2023:00+22sse22977 0.0 101238
02:00+22sse229799 0.0 101042
05:00+22sse22979 0.0 101036
08:00+25sse23886 0.0 1011350
11:00+30s235926 0.1 10101339
14:00+28sse3371100 1.4 1008857
17:00+26s248299 1.1 1009268
20:00+23s229686 1.4 101235
21 may, fri
fri2123:00+22sse229653 0.0 101237
02:00+22sse22978 0.0 101134
05:00+22s2296100 0.0 101131
08:00+25sse138547 0.0 1012252
11:00+30s225836 0.0 10111315
14:00+30ssw325745 0.1 10091321
17:00+26s2375100 0.3 1009298
20:00+22s229479 0.3 101246
22 may, sat
sat2223:00+22s229492 0.0 101244
02:00+22s229266 0.0 101168
05:00+22s119544 0.1 101125
08:00+25sse238394 0.1 1012410
11:00+29sse336333 0.2 10101297
14:00+30sse225958 0.5 10071288
17:00+27s24755 0.1 1007238
20:00+22s229667 0.3 101055
23 may, sun
sun2323:00+22s22968 0.1 101133
02:00+21sse119756 0.1 101025
05:00+21sse11979 0.0 101024
08:00+25s128252 0.1 1011293
11:00+30s215998 0.1 10101372
14:00+29s126873 0.4 1007669
17:00+26ssw118792 1.3 100893
20:00+22sse23967 2.5 101168